Tracking 19634 objects as of 21-May-2019
HD Live streaming from Space Station
objects crossing your sky now

COSMOS 1937

Track COSMOS 1937 now!
10-day predictions
COSMOS 1937 is classified as:


NORAD ID: 19038
Int'l Code: 1988-029A
Perigee: 764.4 km
Apogee: 798.7 km
Inclination: 74.0 °
Period: 100.3 minutes
Semi major axis: 7152 km
RCS: 2.2121 m2 (large)
Launch date: April 5, 1988
Source: Commonwealth of Independent States (former USSR) (CIS)
Launch site: PLESETSK MISSILE AND SPACE COMPLEX (PKMTR)
aabbcc
Your satellite tracking list
Your tracking list is empty




NASA's NSSDC Master Catalog

Two Line Element Set (TLE):
1 19038U 88029A   19141.19320488 -.00000004  00000-0  77760-5 0  9996
2 19038  74.0443 161.5769 0023941 166.3972 260.2316 14.35203767629255
Source of the keplerian elements: AFSPC